Regional Weather Roundup
Issued by NWS Goodland, KS

Home | Current Version | Previous Version | Graphics & Text | Print | Product List | Glossary On
Versions: 1 2 3 4 5 6 7 8 9 10 11 12 13 14 15 16 17 18 19 20 21 22 23 24 25 26 27 28 29 30 31 32 33 34 35 36 37 38 39 40 41 42 43 44 45 46 47 48 49 50
000
ASUS43 KGLD 282359
RWRGLD

GOODLAND FORECAST AREA HOURLY WEATHER ROUNDUP
NATIONAL WEATHER SERVICE GOODLAND KS
600 PM MDT WED JUN 28 2017

...OFFICIAL OBSERVATIONS...

CITY           SKY/WX    TMP DP  RH WIND       PRES   REMARKS
GOODLAND KS    SUNNY     87  52  29 SE10      29.78S
HILL CITY KS   SUNNY     93  61  34 E7        29.69F
IMPERIAL NEB   SUNNY     87  44  22 S8        29.77R
MCCOOK NEB     SUNNY     91  52  26 E8        29.72S
AKRON CO       CLOUDY    81  41  24 S20       29.83F
BURLINGTON CO  SUNNY     88  49  25 E10       29.81F
LIMON CO       SUNNY     87  37  17 SE17      29.84F
$$

...UNOFFICIAL OBSERVATIONS...

CITY           SKY/WX    TMP DP  RH WIND       PRES   REMARKS
LENORA KS        N/A     91  32  12 MISG        N/A
NORTON KS      SUNNY     91  43  18 E8        29.70S
SHARON SPRINGS   N/A     89  53  28 E9          N/A
TRENTON NEB      N/A     89  32  13 SE5         N/A
KIT CARSON CO    N/A     90  48  23 MISG        N/A
YUMA CO        FAIR      79  50  36 SE14      29.78F
$$




USA.gov is the U.S. government's official web portal to all federal, state and local government web resources and services.